User: anonymous   Login
Location: Caltech
(34.1382°N, 118.1253°W)
Time: 12:57:50
(UTC-07:00)
Language:

PAYLOAD A - Orbit

View from above orbital plane
View from above orbital plane
View from above satellite
View from above satellite

Ground track
Ground track

The orbit data is extracted from the following two-line orbital elements,

1 27840U 03031A   16125.89892156 +.00000002 +00000-0 +14277-4 0  9998
2 27840 098.1970 135.2909 0096977 269.9702 089.0374 14.38853044674502
Epoch (UTC): 04 May 2016 21:34:26
Eccentricity: 0.0096977
inclination: 98.1970°
perigee height: 693 km
apogee height: 831 km
right ascension of ascending node: 135.2909°
argument of perigee: 269.9702°
revolutions per day: 14.38853044
mean anomaly at epoch: 89.0374°
orbit number at epoch: 67450

The dashed part of the orbit path shows where the satellite is in the earth's shadow,  

DLR